Theta_e
326 317 309 304 294 292 288 292 294 295 297 300 304 306 305 306 306 301 324 334 339 342 345 345 346 348 348 346 344 341 340 336 333 330 328 328 327 326 326 326 326 326 327 328 328 328 328 328 328
321 314 304 297 290 285 287 291 293 296 302 303 305 303 304 305 314 316 323 337 342 344 344 343 343 347 346 343 341 339 335 331 329 327 326 325 325 325 324 325 325 325 325 326 327 328 327 327 327
317 312 299 292 287 287 287 293 294 300 302 303 302 305 305 305 315 320 326 339 342 340 340 341 343 345 343 340 338 334 330 327 326 325 324 324 323 322 323 323 323 322 324 325 326 326 326 326 326
309 303 297 289 287 291 291 294 298 299 302 306 304 302 307 313 313 324 336 338 337 337 338 341 342 341 339 336 334 330 327 325 324 322 322 321 320 319 320 320 321 321 322 324 325 324 323 323 322
306 300 290 285 286 290 293 295 296 299 300 301 303 300 305 315 325 330 334 336 335 333 336 339 339 339 335 333 330 326 324 323 322 321 319 317 317 318 320 320 320 321 322 323 322 322 321 321 321
298 297 289 285 287 291 292 294 294 295 300 302 300 302 304 314 324 327 331 332 335 333 334 334 331 333 333 330 326 323 321 320 318 317 316 318 318 318 319 319 319 320 321 320 320 320 320 320 320
298 293 289 284 287 290 293 296 293 295 297 299 301 300 303 311 321 327 329 329 329 330 330 330 329 328 326 326 324 322 319 317 315 314 316 318 318 319 318 317 318 320 320 320 320 320 320 321 320
300 296 290 285 287 292 296 296 297 297 297 301 301 299 301 312 321 326 328 327 327 327 327 325 324 319 315 314 319 319 318 315 312 313 315 317 316 318 316 316 316 318 319 320 320 319 319 319 321
303 293 289 288 289 290 295 295 298 300 297 299 302 302 307 316 322 324 323 322 324 326 324 321 318 315 312 310 311 314 316 314 315 314 316 313 310 310 311 315 316 317 318 319 319 319 320 321 319
298 292 291 293 294 293 296 297 298 295 296 297 302 310 315 318 319 320 320 321 321 320 320 320 317 313 310 310 306 305 307 306 307 309 309 310 310 310 311 310 314 314 315 316 318 320 320 318 314
298 292 294 295 298 298 297 296 297 295 294 296 297 305 310 312 315 318 318 319 319 319 320 318 316 312 308 306 304 305 305 305 307 307 309 308 308 307 307 306 306 307 309 308 313 316 314 313 312
295 298 297 299 299 298 295 297 296 295 295 299 301 305 306 309 311 313 315 317 317 317 316 315 311 309 305 305 305 304 305 305 305 307 309 307 306 306 305 305 305 305 306 307 313 311 311 312 312
296 297 299 299 299 298 298 295 295 295 299 299 302 304 303 301 302 304 307 310 315 316 315 312 309 308 306 304 304 304 304 305 306 308 309 308 306 305 305 305 305 305 307 311 314 311 310 311 312
300 299 299 299 298 299 297 296 296 296 300 299 300 299 300 301 301 301 302 302 308 315 314 310 308 307 306 304 304 304 305 306 307 307 307 309 307 305 305 304 305 307 310 314 315 311 310 311 311
300 295 296 297 297 298 298 296 293 298 301 299 299 299 301 300 302 301 302 303 303 313 312 308 307 306 305 304 304 305 306 307 306 307 308 308 307 305 305 304 306 312 315 316 315 313 311 310 310
296 295 289 296 297 298 297 292 295 298 298 297 298 299 299 301 302 303 304 304 306 311 309 308 308 305 304 304 305 307 306 306 306 306 306 306 307 306 305 305 311 315 315 314 311 310 310 309 307
292 287 289 293 299 297 294 291 296 298 297 295 295 297 299 300 302 302 304 304 305 306 306 304 304 304 305 306 306 306 307 307 305 304 304 305 306 307 305 309 312 314 314 311 311 309 308 308 308
287 288 290 291 296 297 293 290 295 296 295 293 294 295 297 298 300 302 303 304 304 304 304 305 305 305 305 305 305 305 306 306 304 303 304 305 306 307 310 314 313 314 313 313 310 307 308 308 307
292 291 290 294 297 295 291 290 292 293 292 292 293 294 296 298 301 303 303 303 304 304 304 304 305 305 304 304 303 303 303 304 304 304 305 305 306 308 311 314 313 314 312 313 310 308 307 306 306
291 290 290 294 296 294 289 288 291 291 291 290 291 292 294 297 299 301 302 302 302 303 303 305 305 305 305 305 304 304 304 304 304 304 305 305 306 308 311 313 313 313 313 313 310 309 307 307 306
290 289 289 291 293 293 289 286 288 290 291 291 291 292 294 297 299 299 299 299 300 300 301 304 304 305 305 306 306 305 305 305 304 304 303 304 306 308 309 311 312 313 313 312 313 310 307 304 304
287 292 293 291 286 280 290 279 283 287 287 288 289 290 292 293 294 296 296 295 296 297 300 301 301 302 304 304 303 302 301 301 303 303 304 305 306 308 310 312 311 313 313 311 310 313 307 306 303
291 294 292 291 287 285 285 281 281 286 284 285 287 288 290 290 291 292 292 293 293 293 294 296 296 297 299 302 304 306 305 304 307 307 308 307 306 308 310 313 313 313 313 313 313 312 310 311 304
294 293 293 291 287 279 283 282 281 282 285 285 286 286 287 288 289 290 291 291 290 290 291 292 294 294 296 298 302 305 305 306 305 306 306 308 310 312 313 314 314 313 313 313 313 313 312 312 307
293 289 282 280 279 279 284 283 280 284 286 286 284 284 285 285 286 287 286 286 287 287 288 290 291 290 292 293 295 297 300 303 304 305 306 306 307 308 310 311 312 313 313 312 313 312 312 312 310
290 289 282 275 277 279 283 282 281 285 286 286 286 284 284 283 284 284 285 285 286 286 287 288 288 289 289 290 291 292 294 296 297 297 298 301 303 305 308 310 311 312 313 314 313 312 312 312 311
287 284 290 282 278 280 282 279 284 284 283 284 283 283 282 282 282 283 284 284 285 285 286 287 287 287 288 288 289 289 290 291 292 293 294 295 297 300 301 304 307 308 309 311 312 311 311 311 311
288 292 284 282 275 275 278 279 281 280 281 282 281 280 281 282 282 282 283 283 284 284 285 285 286 286 287 287 288 288 288 289 290 290 290 291 293 294 296 298 300 302 304 305 306 307 309 310 310
286 285 286 287 283 279 276 279 283 283 282 281 281 282 281 281 281 282 282 282 283 283 282 282 283 282 283 284 284 285 285 286 286 287 287 289 290 291 292 293 294 296 296 296 297 298 300 302 305
288 287 287 282 279 279 280 278 284 285 283 282 281 282 282 281 281 280 280 279 280 280 279 279 280 280 281 281 282 282 282 283 282 282 283 285 286 288 289 289 290 292 293 293 293 293 295 296 298
Wind_Speed
8 5 3 5 4 5 3 6 3 1 2 3 2 8 8 3 3 3 1 4 14 13 11 12 13 14 13 13 12 12 11 9 8 7 7 8 8 8 8 9 9 9 9 10 10 10 10 10 11
5 4 5 2 5 3 5 5 4 2 2 1 5 4 6 3 2 3 4 4 12 10 7 8 11 16 14 11 11 13 10 9 7 7 8 8 8 9 8 8 9 9 9 10 10 11 11 12 12
4 2 4 4 3 4 3 3 2 2 2 3 4 6 3 2 3 6 5 9 10 7 5 10 14 14 14 11 12 13 10 9 8 8 7 7 8 8 9 8 8 9 10 10 11 12 12 12 13
3 3 4 3 4 6 3 4 4 1 3 5 3 6 3 2 2 4 11 12 11 8 6 9 14 14 14 11 13 12 10 9 8 7 7 7 7 8 8 8 9 9 9 10 11 11 12 12 13
2 3 2 2 4 5 1 4 4 2 1 1 2 3 3 4 4 9 11 10 13 8 7 10 12 13 11 11 12 10 9 9 8 7 7 6 6 6 8 9 9 9 10 12 12 11 12 12 13
3 1 2 3 3 4 2 3 1 2 2 2 4 4 2 1 3 6 8 8 10 11 8 8 10 13 8 10 10 10 8 7 7 6 6 7 6 5 7 8 8 10 13 12 12 12 12 11 12
5 2 4 3 3 3 3 4 2 2 2 3 1 4 1 2 3 7 7 7 7 7 9 8 8 8 9 9 9 8 7 6 5 5 6 8 7 6 6 6 7 11 11 12 11 12 12 13 14
4 3 1 4 2 1 2 1 1 3 0 2 1 4 4 5 6 8 6 6 7 5 7 8 7 6 6 4 8 7 5 4 3 4 5 7 7 6 7 5 7 10 11 12 12 12 12 13 14
5 3 1 4 1 1 1 2 4 1 2 3 4 3 1 8 8 8 5 2 5 4 6 6 6 6 6 5 4 4 2 2 2 3 4 4 3 4 4 6 9 10 12 11 11 12 12 12 11
4 0 4 2 2 2 3 3 2 2 3 2 4 5 4 5 5 8 7 7 5 5 5 5 6 6 5 3 3 2 1 2 1 2 4 4 4 4 4 6 9 10 9 10 10 12 12 8 4
4 3 4 3 2 4 4 5 5 3 2 1 1 6 4 3 3 6 5 6 7 7 6 6 6 6 6 4 2 0 1 2 2 4 3 5 4 4 4 3 4 4 6 4 5 5 3 5 4
1 6 2 5 2 3 2 4 5 2 3 2 6 7 6 7 7 6 8 7 7 7 7 7 7 6 5 3 3 2 1 2 2 3 4 3 3 4 4 3 4 4 3 5 4 3 4 5 5
2 6 6 4 2 2 2 2 2 6 10 6 8 11 10 10 9 8 6 5 4 7 7 7 7 7 5 5 3 3 2 3 2 3 3 3 3 3 3 4 4 4 4 3 4 4 4 5 6
6 13 10 5 5 3 3 2 4 2 11 17 18 14 12 13 9 7 11 7 2 6 8 6 7 6 6 4 4 2 2 3 3 3 3 4 2 3 3 3 3 4 3 4 3 4 4 4 5
2 3 4 5 4 4 2 3 3 6 16 16 14 13 14 12 12 11 7 7 5 4 7 7 7 6 7 6 5 3 3 3 3 3 4 4 3 3 4 3 3 3 3 5 4 4 4 4 4
6 2 0 4 6 1 3 3 10 10 19 14 14 13 13 16 14 13 13 9 5 8 9 7 6 6 7 6 5 4 3 3 3 3 3 4 4 4 4 3 3 4 3 3 4 4 4 4 4
4 3 5 3 1 3 2 6 9 11 13 13 12 12 12 14 17 16 15 12 12 11 10 9 7 7 6 6 4 4 4 4 2 3 3 4 4 5 3 2 3 4 4 4 3 3 2 3 4
6 4 4 4 4 2 8 7 8 10 13 12 11 11 12 14 16 13 16 14 15 13 11 9 6 7 6 4 3 3 3 3 3 3 3 4 4 5 4 3 3 4 3 4 4 3 4 2 4
1 5 4 3 3 3 5 7 7 9 12 12 12 11 11 12 10 12 15 14 14 13 12 9 9 7 5 4 3 2 2 1 2 3 4 4 4 5 4 3 3 3 3 4 4 4 4 3 5
6 5 3 3 1 5 5 8 9 11 8 8 9 11 10 10 11 12 14 13 12 10 8 9 8 8 5 3 2 1 1 1 1 2 3 4 4 5 4 4 4 4 4 4 4 5 4 3 4
6 3 4 6 3 6 9 2 4 6 8 11 10 8 11 9 9 11 14 13 12 12 10 10 9 9 7 7 4 3 3 3 4 3 3 3 4 4 4 4 4 5 4 3 4 4 5 4 3
5 3 3 5 3 4 4 5 3 5 8 9 8 9 9 10 11 12 13 14 13 11 11 11 11 11 10 8 5 5 3 3 3 3 3 4 5 4 4 4 4 5 4 5 4 3 3 3 4
2 5 3 1 2 3 2 3 3 7 3 3 5 7 8 9 10 11 12 12 12 11 11 10 11 12 11 9 6 5 6 3 3 4 7 5 5 5 5 5 4 4 3 4 5 5 5 3 2
7 6 8 4 4 2 7 6 4 5 4 4 3 5 7 8 10 11 10 12 11 11 11 11 12 12 12 10 11 9 8 7 7 6 6 5 5 5 8 8 6 4 4 4 4 4 5 5 2
8 9 2 2 0 6 1 3 2 3 5 7 7 5 5 6 8 9 11 10 10 12 12 10 12 12 13 12 13 13 12 11 9 9 6 8 6 6 9 8 8 6 6 4 4 4 5 4 4
8 15 7 7 5 4 0 5 0 5 7 8 8 6 6 6 6 7 8 8 9 11 11 11 11 12 13 12 12 12 13 8 8 10 9 8 9 9 11 9 8 9 9 7 5 3 3 4 4
6 5 3 6 2 2 4 2 1 7 7 7 7 7 6 6 6 6 7 8 9 9 10 10 10 11 13 12 11 12 12 13 10 11 10 8 9 10 12 13 12 11 11 11 9 4 5 4 4
4 5 2 2 5 5 4 4 4 13 11 8 6 6 5 5 6 6 7 8 8 8 8 10 10 11 11 11 11 10 12 12 11 11 13 12 11 12 12 12 12 13 13 14 12 10 11 8 5
3 4 3 2 4 5 4 5 2 13 14 11 8 7 6 5 5 5 5 6 6 7 8 9 10 11 11 11 11 11 11 12 11 11 12 12 12 13 13 13 12 12 13 13 12 12 13 12 12
2 5 5 5 5 2 2 3 3 11 13 12 10 8 7 6 6 5 5 6 6 7 8 8 9 10 10 9 10 11 11 11 12 13 13 13 13 13 13 13 13 13 14 13 13 13 13 13 13
Wind_Direction
304 319 73 43 59 65 270 261 276 12 57 303 320 95 111 68 107 196 32 122 131 144 157 172 160 140 130 129 123 95 101 103 95 80 73 66 58 47 38 30 17 3 356 347 341 333 327 322 320
309 3 42 71 87 75 267 270 178 235 210 200 96 85 41 60 84 120 89 126 124 135 152 129 124 125 127 129 117 109 106 97 85 73 60 50 40 38 29 19 12 2 351 343 337 331 328 325 324
306 50 77 94 121 180 220 264 177 250 10 69 79 58 85 68 9 160 123 128 120 111 102 122 128 128 124 126 111 110 106 97 84 73 57 49 38 26 18 13 5 355 354 349 345 343 338 332 326
10 15 38 94 215 257 217 227 201 315 360 51 102 62 61 288 210 132 128 123 115 112 116 113 110 116 118 123 109 113 109 100 87 72 56 45 35 18 14 2 356 353 352 347 342 339 339 335 328
28 57 60 289 244 268 207 238 174 106 111 68 67 156 65 355 60 112 123 129 125 119 125 114 119 113 106 115 114 111 108 98 88 76 58 31 22 21 15 12 0 353 345 339 336 339 335 329 324
61 103 90 242 247 271 298 285 106 70 350 59 69 97 97 77 110 124 120 126 131 134 124 115 107 97 119 117 115 112 101 88 79 63 47 26 18 22 21 11 0 349 343 343 342 341 337 333 334
121 100 186 246 243 284 217 314 74 102 61 35 308 77 121 157 210 118 119 121 119 122 111 103 95 105 108 108 103 102 101 88 72 47 35 20 1 5 11 0 354 349 352 352 350 342 337 331 332
117 93 299 254 219 244 220 83 298 74 229 277 136 163 195 199 170 116 116 121 113 120 111 113 115 116 112 108 114 116 116 91 57 37 30 21 21 32 26 22 334 341 345 342 346 345 346 347 339
34 64 251 307 296 345 286 91 345 67 48 18 35 95 32 125 119 110 111 96 105 125 124 130 132 140 135 130 136 118 114 90 33 29 32 31 18 357 25 9 358 354 344 345 344 350 336 337 344
88 244 226 303 282 350 340 85 0 54 9 18 53 26 69 104 130 141 158 154 160 161 154 158 148 153 145 135 133 147 92 29 14 49 10 22 18 6 19 356 357 355 358 344 335 336 350 343 329
130 234 220 286 357 17 0 8 317 69 20 28 222 175 165 128 153 171 188 171 184 178 160 167 156 151 149 131 149 58 53 54 31 19 30 19 22 14 9 358 349 343 344 335 324 352 356 338 335
174 251 285 284 333 12 341 306 349 4 221 73 294 166 158 163 198 204 210 197 182 183 163 155 149 135 146 122 126 107 41 64 38 17 44 32 13 12 7 1 347 347 321 324 325 347 341 337 333
188 269 292 334 358 297 278 310 266 303 285 281 59 51 47 34 19 349 322 292 208 178 155 156 144 140 138 114 104 92 60 48 48 44 17 42 23 13 355 359 354 343 323 318 339 353 341 333 333
187 238 267 284 271 304 327 1 26 3 25 64 69 60 51 46 15 358 20 351 273 168 152 140 138 131 118 106 89 93 67 50 43 32 12 32 25 5 17 15 352 332 313 324 329 343 336 343 345
204 198 315 269 205 216 160 4 349 57 74 63 58 54 43 32 22 13 344 314 333 141 121 122 122 117 103 96 90 63 38 54 40 29 41 18 30 18 12 22 352 317 328 326 342 335 359 350 350
192 328 202 320 150 217 179 126 10 3 80 56 48 45 37 28 17 4 3 323 10 100 98 99 97 90 91 91 87 66 50 56 39 45 14 12 16 27 25 3 2 327 338 336 332 332 333 339 336
152 193 211 281 175 150 208 100 20 20 62 59 43 42 39 30 21 11 15 17 47 69 78 71 68 77 83 78 75 65 52 48 37 36 19 7 13 11 17 1 349 354 337 331 339 317 326 320 330
173 244 184 185 220 89 88 88 52 38 60 60 50 39 39 36 24 13 25 28 46 54 61 63 56 50 56 60 60 49 53 34 21 18 18 18 6 8 8 29 16 359 336 324 342 324 318 301 321
260 171 268 138 209 112 87 83 50 44 50 50 48 38 35 37 31 30 38 36 45 45 52 45 49 24 31 30 28 28 28 352 2 8 14 24 1 8 10 19 10 339 326 325 342 321 332 313 337
289 188 152 36 163 92 95 78 64 46 51 51 42 40 30 35 36 36 39 37 38 39 36 39 36 30 19 18 358 56 74 17 10 339 1 9 12 7 355 22 343 343 337 348 344 356 331 316 18
232 174 171 148 148 56 133 147 162 76 70 54 39 31 37 40 39 41 41 32 30 29 17 31 27 28 22 12 22 22 35 21 1 356 345 343 13 8 15 4 350 346 349 351 345 355 6 334 322
195 164 139 122 119 218 172 251 207 117 73 55 42 34 34 38 40 39 38 34 28 17 20 23 28 25 16 11 32 46 51 19 335 325 320 343 355 5 355 360 7 352 347 348 335 351 340 2 341
241 41 163 117 84 48 234 81 293 139 108 78 56 47 43 40 42 39 34 36 30 19 24 16 20 30 15 11 17 23 29 9 6 7 5 14 356 3 346 338 357 353 336 333 344 344 344 345 330
136 73 24 48 69 351 234 155 224 193 164 143 99 60 50 50 46 45 40 38 27 20 23 20 14 17 19 15 19 21 30 22 28 15 13 3 6 3 9 2 348 346 336 336 329 324 332 322 326
123 105 29 328 226 221 295 149 260 120 91 134 128 87 58 45 45 41 35 32 29 26 22 18 18 18 18 20 23 21 16 20 25 15 10 8 3 6 359 352 347 352 331 321 317 321 322 331 326
175 163 172 201 198 214 76 222 246 115 102 105 104 100 75 59 53 45 37 38 34 29 26 25 20 23 24 21 22 21 25 24 28 22 14 15 7 2 359 349 355 354 346 340 326 308 308 318 315
183 196 178 111 13 83 148 112 34 143 129 122 114 96 82 65 55 49 41 40 36 29 26 27 26 27 29 24 26 25 23 26 23 19 19 14 6 3 4 3 4 6 3 357 345 331 319 319 305
149 169 97 3 140 229 241 218 212 180 164 147 133 120 105 81 61 49 42 39 33 30 23 25 30 33 32 31 30 30 26 24 23 23 19 12 9 4 4 7 10 9 6 9 7 2 359 331 306
163 192 200 137 153 176 166 242 329 176 162 160 153 136 122 103 81 61 48 40 36 34 27 27 30 32 33 30 30 32 28 25 25 24 18 9 10 9 11 9 10 11 17 9 6 3 2 359 353
296 208 166 152 219 250 189 232 341 141 146 146 141 133 123 114 100 77 59 46 34 37 34 30 31 37 30 29 36 34 29 26 27 22 17 9 10 7 10 9 13 13 20 11 9 360 354 352 348